International Skating Union - Official Site

ESSENT ISU WORLD DISTANCES CHAMPIONSHIPS 2011
March 10-13, 2011

Draw | Lap Times | Index | Classification

Referee: Ernest  KRETSCHMANN  (USA)
Starter: Bernhard  MAYER  (GER)
StartTime: EndTime: Air Temp: Ice Temp: Humidity:
15:24 16:50 12℃ -10℃ 37%
Result 5000m Ladies
Rankings as of Mar 12 2011 4:50PM
Rank: No.: Name: Nation: Time: Behind: Points:
1 13 Martina  SÁBLIKOVÁ CZE CZE 6:50.83200m - 20.50 - (20.5)
600m - 52.84 - (32.3)
1000m - 1:25.16 - (32.3)
1400m - 1:57.71 - (32.5)
1800m - 2:30.30 - (32.5)
2200m - 3:02.79 - (32.5)
2600m - 3:35.32 - (32.5)
3000m - 4:07.87 - (32.5)
3400m - 4:40.48 - (32.6)
3800m - 5:12.89 - (32.4)
4200m - 5:45.57 - (32.6)
4600m - 6:18.25 - (32.6)
5000m - 6:50.83 - (32.5)
41.083
2 17 Stephanie  BECKERT GER GER 6:54.99200m - 21.04 - (21.0)
600m - 53.70 - (32.6)
1000m - 1:26.14 - (32.4)
1400m - 1:58.60 - (32.4)
1800m - 2:31.14 - (32.5)
2200m - 3:03.94 - (32.8)
2600m - 3:36.59 - (32.6)
3000m - 4:09.56 - (32.9)
3400m - 4:42.69 - (33.1)
3800m - 5:15.92 - (33.2)
4200m - 5:49.15 - (33.2)
4600m - 6:22.24 - (33.1)
5000m - 6:54.99 - (32.7)
4.16 41.499
3 23 Claudia  PECHSTEIN GER GER 7:00.90200m - 20.40 - (20.4)
600m - 52.51 - (32.1)
1000m - 1:24.83 - (32.3)
1400m - 1:57.56 - (32.7)
1800m - 2:30.35 - (32.8)
2200m - 3:03.41 - (33.0)
2600m - 3:36.69 - (33.2)
3000m - 4:10.39 - (33.7)
3400m - 4:44.26 - (33.8)
3800m - 5:18.43 - (34.1)
4200m - 5:52.65 - (34.2)
4600m - 6:26.96 - (34.3)
5000m - 7:00.90 - (33.9)
10.07 42.090
4 33 Masako  HOZUMI JPN JPN 7:03.14200m - 20.65 - (20.6)
600m - 52.00 - (31.3)
1000m - 1:24.09 - (32.0)
1400m - 1:56.88 - (32.7)
1800m - 2:29.93 - (33.0)
2200m - 3:03.14 - (33.2)
2600m - 3:36.72 - (33.5)
3000m - 4:10.12 - (33.4)
3400m - 4:43.69 - (33.5)
3800m - 5:17.71 - (34.0)
4200m - 5:52.20 - (34.4)
4600m - 6:27.50 - (35.3)
5000m - 7:03.14 - (35.6)
12.31 42.314
5 42 Diane  VALKENBURG NED NED 7:04.15200m - 20.25 - (20.2)
600m - 52.94 - (32.6)
1000m - 1:27.21 - (34.2)
1400m - 2:01.09 - (33.8)
1800m - 2:34.31 - (33.2)
2200m - 3:07.67 - (33.3)
2600m - 3:41.19 - (33.5)
3000m - 4:14.43 - (33.2)
3400m - 4:47.73 - (33.3)
3800m - 5:21.07 - (33.3)
4200m - 5:54.91 - (33.8)
4600m - 6:28.94 - (34.0)
5000m - 7:04.15 - (35.2)
13.32 42.415
6 63 Jilleanne  ROOKARD USA USA 7:05.71200m - 20.34 - (20.3)
600m - 52.30 - (31.9)
1000m - 1:25.05 - (32.7)
1400m - 1:58.31 - (33.2)
1800m - 2:31.34 - (33.0)
2200m - 3:04.45 - (33.1)
2600m - 3:37.94 - (33.4)
3000m - 4:11.95 - (34.0)
3400m - 4:46.11 - (34.1)
3800m - 5:20.72 - (34.6)
4200m - 5:55.38 - (34.6)
4600m - 6:30.54 - (35.1)
5000m - 7:05.71 - (35.1)
14.88 42.571
7 5 Cindy  KLASSEN CAN CAN 7:07.52200m - 20.44 - (20.4)
600m - 52.92 - (32.4)
1000m - 1:26.44 - (33.5)
1400m - 1:59.56 - (33.1)
1800m - 2:32.74 - (33.1)
2200m - 3:06.08 - (33.3)
2600m - 3:39.74 - (33.6)
3000m - 4:13.33 - (33.5)
3400m - 4:47.09 - (33.7)
3800m - 5:20.93 - (33.8)
4200m - 5:55.28 - (34.3)
4600m - 6:30.52 - (35.2)
5000m - 7:07.52 - (37.0)
16.69 42.752
8 32 Eriko  ISHINO JPN JPN 7:10.66200m - 20.30 - (20.3)
600m - 52.01 - (31.7)
1000m - 1:24.44 - (32.4)
1400m - 1:57.26 - (32.8)
1800m - 2:30.48 - (33.2)
2200m - 3:04.15 - (33.6)
2600m - 3:38.52 - (34.3)
3000m - 4:13.05 - (34.5)
3400m - 4:48.05 - (35.0)
3800m - 5:23.45 - (35.4)
4200m - 5:59.12 - (35.6)
4600m - 6:34.85 - (35.7)
5000m - 7:10.66 - (35.8)
19.83 43.066
9 45 Jorien  VOORHUIS NED NED 7:10.73200m - 20.22 - (20.2)
600m - 52.43 - (32.2)
1000m - 1:25.64 - (33.2)
1400m - 1:59.32 - (33.6)
1800m - 2:33.04 - (33.7)
2200m - 3:06.79 - (33.7)
2600m - 3:40.82 - (34.0)
3000m - 4:14.79 - (33.9)
3400m - 4:49.16 - (34.3)
3800m - 5:23.82 - (34.6)
4200m - 5:58.91 - (35.0)
4600m - 6:34.57 - (35.6)
5000m - 7:10.73 - (36.1)
19.90 43.073
10 31 Shiho  ISHIZAWA JPN JPN 7:11.81200m - 20.96 - (20.9)
600m - 53.00 - (32.0)
1000m - 1:25.98 - (32.9)
1400m - 1:59.26 - (33.2)
1800m - 2:33.06 - (33.8)
2200m - 3:06.89 - (33.8)
2600m - 3:41.16 - (34.2)
3000m - 4:15.82 - (34.6)
3400m - 4:50.80 - (34.9)
3800m - 5:25.90 - (35.0)
4200m - 6:01.20 - (35.3)
4600m - 6:36.42 - (35.2)
5000m - 7:11.81 - (35.3)
20.98 43.181
11 47 Linda  de VRIES NED NED 7:14.85200m - 20.16 - (20.1)
600m - 51.97 - (31.8)
1000m - 1:25.32 - (33.3)
1400m - 1:58.52 - (33.2)
1800m - 2:32.00 - (33.4)
2200m - 3:05.83 - (33.8)
2600m - 3:40.35 - (34.5)
3000m - 4:15.11 - (34.7)
3400m - 4:50.26 - (35.1)
3800m - 5:25.77 - (35.5)
4200m - 6:01.62 - (35.8)
4600m - 6:37.88 - (36.2)
5000m - 7:14.85 - (36.9)
24.02 43.485
12 51 Luiza  ZLOTKOWSKA POL POL 7:15.71200m - 21.44 - (21.4)
600m - 54.60 - (33.1)
1000m - 1:28.57 - (33.9)
1400m - 2:02.22 - (33.6)
1800m - 2:36.37 - (34.1)
2200m - 3:10.09 - (33.7)
2600m - 3:44.66 - (34.5)
3000m - 4:19.42 - (34.7)
3400m - 4:54.29 - (34.8)
3800m - 5:29.44 - (35.1)
4200m - 6:05.09 - (35.6)
4600m - 6:40.55 - (35.4)
5000m - 7:15.71 - (35.1)
24.88 43.571
13 50 Mari  HEMMER NOR NOR 7:16.85200m - 20.48 - (20.4)
600m - 53.18 - (32.7)
1000m - 1:26.51 - (33.3)
1400m - 2:00.29 - (33.7)
1800m - 2:33.80 - (33.5)
2200m - 3:07.82 - (34.0)
2600m - 3:42.11 - (34.2)
3000m - 4:16.96 - (34.8)
3400m - 4:52.09 - (35.1)
3800m - 5:27.64 - (35.5)
4200m - 6:03.78 - (36.1)
4600m - 6:40.49 - (36.7)
5000m - 7:16.85 - (36.3)
26.02 43.685
14 20 Kathrin  MATTSCHERODT GER GER 7:18.01200m - 21.03 - (21.0)
600m - 54.33 - (33.3)
1000m - 1:27.78 - (33.4)
1400m - 2:01.84 - (34.0)
1800m - 2:35.80 - (33.9)
2200m - 3:10.32 - (34.5)
2600m - 3:44.84 - (34.5)
3000m - 4:19.68 - (34.8)
3400m - 4:54.61 - (34.9)
3800m - 5:29.81 - (35.2)
4200m - 6:05.38 - (35.5)
4600m - 6:41.82 - (36.4)
5000m - 7:18.01 - (36.2)
27.18 43.801
15 7 Ivanie  BLONDIN CAN CAN 7:23.96200m - 20.76 - (20.7)
600m - 52.41 - (31.6)
1000m - 1:24.85 - (32.4)
1400m - 1:58.46 - (33.6)
1800m - 2:32.27 - (33.8)
2200m - 3:06.89 - (34.6)
2600m - 3:41.57 - (34.6)
3000m - 4:16.74 - (35.1)
3400m - 4:52.47 - (35.7)
3800m - 5:28.83 - (36.3)
4200m - 6:05.91 - (37.0)
4600m - 6:44.23 - (38.3)
5000m - 7:23.96 - (39.7)
33.13 44.396
16 15 Cathrine  GRAGE DEN DEN 7:26.90200m - 21.70 - (21.7)
600m - 55.07 - (33.3)
1000m - 1:28.61 - (33.5)
1400m - 2:02.86 - (34.2)
1800m - 2:37.04 - (34.1)
2200m - 3:11.52 - (34.4)
2600m - 3:46.59 - (35.0)
3000m - 4:21.99 - (35.4)
3400m - 4:57.70 - (35.7)
3800m - 5:34.14 - (36.4)
4200m - 6:11.49 - (37.3)
4600m - 6:49.15 - (37.6)
5000m - 7:26.90 - (37.7)
36.07 44.690